Location: Newark
(43.2700°N, 11.0700°E)
Time: 06:36:51
(UTC+00:00)

Oscar 19 - Visible Passes

Search period start: 26 October 2021 00:00
Search period end: 05 November 2021 00:00
Orbit: 773 x 790 km, 98.8° (Epoch: 25 October)

Date Brightness Start Highest point End Pass type
(mag) Time Alt. Az. Time Alt. Az. Time Alt. Az.
26 Oct 13.4 01:56:10 10° NNE 01:56:36 12° NNE 01:56:36 12° NNE visible
26 Oct 12.6 03:36:03 10° NNW 03:37:09 15° NNW 03:37:09 15° NNW visible
27 Oct 12.7 03:03:32 10° N 03:04:40 16° N 03:04:40 16° N visible
28 Oct 13.0 02:31:22 10° NNE 02:32:10 15° NNE 02:32:10 15° NNE visible
29 Oct 13.5 01:59:32 10° NNE 01:59:41 11° NNE 01:59:41 11° NNE visible
29 Oct 12.7 03:39:33 10° NNW 03:40:13 13° NNW 03:40:13 13° NNW visible
30 Oct 12.8 03:06:59 10° N 03:07:44 14° N 03:07:44 14° N visible
31 Oct 13.1 02:34:47 10° NNE 02:35:14 13° NNE 02:35:14 13° NNE visible
01 Nov 12.9 03:43:03 10° NNW 03:43:18 11° NNW 03:43:18 11° NNW visible
02 Nov 13.0 03:10:26 10° N 03:10:48 12° N 03:10:48 12° N visible
03 Nov 13.3 02:38:12 10° N 02:38:20 11° N 02:38:20 11° N visible
